Time,TemperatureF,DewpointF,PressureIn,WindDirection,WindDirectionDegrees,WindSpeedMPH,WindSpeedGustMPH,Humidity,HourlyPrecipIn,Conditions,Clouds,dailyrainin,SoftwareType,DateUTC
2015-07-29 00:05:00,71.0,69.0,-100.00,WSW,250,0.0,3.0,94,-99.99,,,-99.99,,2015-07-29 05:05:00,
2015-07-29 00:13:00,71.0,69.0,-100.00,SW,220,0.0,4.0,94,-99.99,,,-99.99,,2015-07-29 05:13:00,
2015-07-29 00:23:00,71.0,69.0,-100.00,North,5,3.0,5.0,94,-99.99,,,-99.99,,2015-07-29 05:23:00,
2015-07-29 00:34:00,71.0,69.0,-100.00,NE,40,2.0,5.0,94,-99.99,,,-99.99,,2015-07-29 05:34:00,
2015-07-29 00:44:00,71.0,69.0,-100.00,ENE,70,0.0,4.0,94,-99.99,,,-99.99,,2015-07-29 05:44:00,
2015-07-29 00:53:00,71.0,69.0,-100.00,North,5,2.0,4.0,94,-99.99,,,-99.99,,2015-07-29 05:53:00,
2015-07-29 01:03:00,71.0,69.0,-100.00,North,355,3.0,4.0,94,-99.99,,,-99.99,,2015-07-29 06:03:00,
2015-07-29 01:13:00,71.0,69.0,-100.00,NW,315,2.0,3.0,94,-99.99,,,-99.99,,2015-07-29 06:13:00,
2015-07-29 01:23:00,71.0,69.0,-100.00,North,355,4.0,6.0,94,-99.99,,,-99.99,,2015-07-29 06:23:00,
2015-07-29 01:33:00,71.0,69.0,-100.00,North,355,2.0,6.0,94,-99.99,,,-99.99,,2015-07-29 06:33:00,
2015-07-29 01:43:00,71.0,69.0,-100.00,NNW,345,1.0,4.0,94,-99.99,,,-99.99,,2015-07-29 06:43:00,
2015-07-29 01:53:00,71.0,70.0,-100.00,NW,310,3.0,5.0,94,-99.99,,,-99.99,,2015-07-29 06:53:00,
2015-07-29 02:04:00,71.0,70.0,-100.00,WNW,300,4.0,6.0,94,-99.99,,,-99.99,,2015-07-29 07:04:00,
2015-07-29 02:13:00,71.0,70.0,-100.00,NW,310,3.0,6.0,94,-99.99,,,-99.99,,2015-07-29 07:13:00,
2015-07-29 02:23:00,71.0,70.0,-100.00,NW,310,2.0,4.0,94,-99.99,,,-99.99,,2015-07-29 07:23:00,
2015-07-29 02:43:00,71.0,70.0,-100.00,WNW,285,4.0,7.0,94,-99.99,,,-99.99,,2015-07-29 07:43:00,
2015-07-29 02:53:00,71.0,70.0,-100.00,WNW,300,4.0,6.0,94,-99.99,,,-99.99,,2015-07-29 07:53:00,
2015-07-29 03:03:00,72.0,70.0,-100.00,NW,305,4.0,7.0,94,-99.99,,,-99.99,,2015-07-29 08:03:00,
2015-07-29 03:13:00,72.0,70.0,-100.00,NW,305,2.0,4.0,94,-99.99,,,-99.99,,2015-07-29 08:13:00,
2015-07-29 03:23:00,72.0,70.0,-100.00,NW,305,3.0,6.0,94,-99.99,,,-99.99,,2015-07-29 08:23:00,
2015-07-29 03:33:00,71.0,70.0,-100.00,NW,310,2.0,4.0,94,-99.99,,,-99.99,,2015-07-29 08:33:00,
2015-07-29 03:43:00,71.0,69.0,-100.00,NW,305,2.0,4.0,94,-99.99,,,-99.99,,2015-07-29 08:43:00,
2015-07-29 03:54:00,71.0,69.0,-100.00,NW,310,2.0,5.0,94,-99.99,,,-99.99,,2015-07-29 08:54:00,
2015-07-29 04:03:00,71.0,69.0,-100.00,West,280,2.0,3.0,94,-99.99,,,-99.99,,2015-07-29 09:03:00,
2015-07-29 04:13:00,71.0,69.0,-100.00,West,270,2.0,4.0,94,-99.99,,,-99.99,,2015-07-29 09:13:00,
2015-07-29 04:23:00,71.0,69.0,-100.00,NW,305,3.0,4.0,94,-99.99,,,-99.99,,2015-07-29 09:23:00,
2015-07-29 04:33:00,71.0,69.0,-100.00,NW,310,3.0,4.0,94,-99.99,,,-99.99,,2015-07-29 09:33:00,
2015-07-29 04:44:00,71.0,69.0,-100.00,NW,320,2.0,5.0,94,-99.99,,,-99.99,,2015-07-29 09:44:00,
2015-07-29 04:53:00,71.0,69.0,-100.00,WNW,295,2.0,3.0,94,-99.99,,,-99.99,,2015-07-29 09:53:00,
2015-07-29 05:03:00,70.0,69.0,-100.00,WSW,245,1.0,2.0,94,-99.99,,,-99.99,,2015-07-29 10:03:00,
2015-07-29 05:13:00,70.0,69.0,-100.00,WSW,240,2.0,2.0,94,-99.99,,,-99.99,,2015-07-29 10:13:00,
2015-07-29 05:23:00,70.0,69.0,-100.00,WNW,290,2.0,4.0,94,-99.99,,,-99.99,,2015-07-29 10:23:00,
2015-07-29 05:34:00,70.0,68.0,-100.00,West,270,2.0,3.0,94,-99.99,,,-99.99,,2015-07-29 10:34:00,